GFSWCAN_prec_cthk_102.txt.gz
RH
52 55 52 47 40 34 35 33 35 33 33 33 28 34 44 52 63 71 75 80 78 68 61 57 53 52 54 56 60 60 62 69 70 68 66 66 65 63 67 67 75 65 67 67 61 66 75 77 69 69 77 71 64 61
67 60 54 50 48 39 36 38 41 37 35 35 30 37 45 57 68 77 79 84 82 76 71 68 61 58 56 54 51 60 62 69 72 71 70 70 71 68 67 71 65 84 78 75 73 78 83 89 87 84 81 79 76 72
62 59 59 62 60 53 42 41 41 39 38 37 30 37 47 61 71 79 83 91 88 83 76 74 72 68 61 54 44 47 55 67 71 73 71 73 79 73 71 70 69 75 71 78 79 80 84 88 89 88 84 79 78 78
57 55 52 47 51 54 48 44 44 41 39 38 30 43 51 63 72 83 87 90 92 90 82 74 72 76 72 64 57 43 47 65 75 73 75 72 70 69 74 75 73 72 72 78 80 84 84 90 93 90 91 89 84 84
58 59 54 50 45 47 42 40 48 42 40 36 39 49 62 74 80 87 92 94 94 94 86 77 75 78 79 74 68 63 49 44 54 65 72 73 68 68 72 73 74 75 76 76 78 82 89 91 96 95 92 91 90 87
55 59 60 52 50 46 39 40 41 40 39 38 47 57 72 82 86 90 93 96 97 95 94 81 76 79 81 78 76 72 65 51 50 66 71 70 70 74 78 79 83 84 83 82 82 84 91 93 93 94 94 92 90 85
47 47 54 57 53 49 47 47 42 41 37 40 52 67 79 85 89 90 93 90 92 97 95 84 76 75 78 79 76 76 71 76 62 65 69 72 74 78 82 80 82 89 90 93 91 90 91 97 96 96 94 91 88 83
44 46 50 56 54 50 46 44 49 49 39 42 58 74 85 90 92 93 98 93 96 96 91 84 82 80 77 78 79 76 73 75 76 72 65 74 79 77 80 76 82 88 89 93 97 97 97 97 97 96 92 90 87 82
40 48 50 56 56 52 47 44 52 53 47 49 73 85 90 92 92 92 97 97 98 98 94 86 85 87 82 80 79 78 76 78 77 78 77 77 75 78 76 72 76 82 86 87 94 97 97 96 93 89 86 84 80 77
40 52 49 54 53 53 48 47 56 57 52 60 85 87 91 92 94 98 99 98 98 98 90 79 78 79 77 80 82 79 79 80 77 76 79 78 72 74 74 72 71 66 67 81 86 87 88 88 85 81 78 77 76 74
41 47 46 52 55 53 50 64 68 50 60 73 84 88 93 98 99 98 98 96 92 88 79 75 78 79 80 80 80 79 82 78 73 76 79 73 66 66 68 71 66 66 76 79 83 84 83 81 79 76 74 73 70 69
47 44 50 53 54 51 53 68 57 56 67 77 91 96 99 98 98 97 92 90 80 73 69 66 70 77 80 83 86 87 80 79 74 79 80 68 67 69 71 68 68 81 88 88 87 85 80 78 77 76 77 75 69 65
45 48 52 56 57 53 57 61 52 69 91 98 98 98 98 96 98 88 80 75 68 63 59 65 73 79 84 87 87 87 90 90 87 84 78 71 70 74 76 80 86 88 88 87 86 85 82 79 73 64 58 53 49 47
47 50 58 58 55 52 52 57 83 96 99 98 99 97 94 96 80 68 58 56 55 56 65 73 78 80 86 88 90 97 91 92 89 85 80 78 81 85 87 88 87 86 83 82 80 73 58 47 42 41 41 42 43 44
52 57 54 49 51 55 82 96 99 99 98 99 98 93 84 79 73 61 57 60 62 68 75 77 78 80 84 91 90 93 94 91 86 86 85 81 80 80 82 81 79 76 65 45 38 39 39 40 42 43 44 45 46 44
58 55 49 51 80 96 98 99 98 99 98 95 88 79 75 70 73 72 67 66 66 69 74 74 80 84 86 87 94 92 89 86 87 80 80 85 82 68 60 50 41 39 39 39 40 41 43 44 45 45 46 45 44 45
59 65 80 97 98 98 98 98 98 98 93 96 85 79 80 76 76 68 64 68 70 72 71 74 78 82 89 87 90 86 86 85 78 79 81 51 46 41 40 41 42 42 42 43 44 45 45 45 45 45 46 46 44 42
98 98 97 97 96 92 95 95 90 89 92 90 86 78 71 70 74 70 68 68 70 70 72 75 76 83 82 85 82 84 81 81 80 77 42 42 40 41 40 40 41 42 44 44 44 43 42 42 43 45 40 36 35 34
98 98 97 94 93 93 92 92 87 84 84 81 79 82 78 73 71 68 68 68 71 73 76 79 83 83 82 78 79 79 74 77 57 41 42 40 40 40 40 40 40 41 43 45 46 46 46 44 41 36 33 32 32 35
97 95 93 91 88 88 87 91 84 78 82 85 86 85 80 76 74 72 72 73 78 78 86 83 79 79 78 77 77 80 64 41 40 40 42 41 40 40 39 40 43 43 47 50 49 46 43 38 33 31 31 31 34 40
92 87 86 88 89 85 83 83 84 85 85 91 92 91 88 81 78 76 77 76 80 83 84 82 80 82 75 80 62 43 39 40 39 37 38 41 41 40 38 41 41 45 50 50 48 43 38 34 31 31 30 30 30 34
87 86 84 83 83 81 83 80 80 81 87 94 91 89 85 80 78 78 79 77 76 78 80 81 80 81 81 44 37 39 38 36 36 38 39 36 37 38 39 40 40 45 48 47 45 40 35 32 28 26 29 30 31 36
92 92 92 91 90 86 90 86 85 85 90 90 87 87 83 80 80 79 85 83 85 82 80 80 82 79 65 35 35 36 35 34 36 36 36 35 35 36 37 38 41 47 49 46 42 37 33 27 26 25 27 31 34 38
93 89 90 91 91 92 87 85 84 85 87 87 86 90 89 86 84 81 79 79 80 84 84 81 75 67 49 36 36 34 34 35 33 35 33 32 32 33 34 35 41 46 46 43 37 31 28 27 26 27 28 34 36 40
86 89 90 91 89 86 86 86 85 84 85 80 76 76 76 76 79 80 81 84 81 70 66 60 51 41 37 36 34 32 34 34 32 33 32 32 29 30 34 40 46 47 44 41 34 31 30 29 28 28 31 34 38 40
85 88 88 88 87 87 87 86 81 78 74 73 72 74 80 82 82 77 76 77 70 66 60 52 42 39 38 36 34 34 34 33 32 29 27 29 32 35 40 46 51 50 46 39 32 31 33 28 28 30 33 35 36 37
80 84 85 85 82 77 75 73 71 69 70 71 70 72 73 72 71 70 68 64 64 59 54 49 41 38 35 36 36 35 31 28 27 25 26 29 34 40 45 51 52 49 42 33 28 26 25 23 23 26 30 33 36 37
78 80 79 78 76 73 71 69 69 71 71 71 63 59 65 60 58 60 62 66 62 53 48 46 44 42 41 39 33 28 25 23 23 24 26 31 39 45 50 52 49 45 36 29 25 23 22 22 24 26 29 32 35 37
75 74 71 72 71 68 68 68 66 66 69 70 63 47 44 44 47 53 57 64 62 54 49 46 43 41 38 32 29 27 25 24 23 23 29 36 44 51 56 52 48 41 32 26 24 22 22 22 24 27 30 34 37 40
74 71 66 66 67 69 68 67 66 66 67 68 68 56 45 42 40 40 47 56 59 58 52 46 43 39 34 31 28 26 25 22 22 26 33 42 51 58 55 50 45 36 28 25 24 23 23 25 29 32 35 39 42 45
68 68 65 64 66 68 69 68 66 66 67 71 70 66 60 57 55 56 55 53 55 55 51 45 41 38 34 30 28 27 24 22 23 29 38 48 60 58 52 47 39 31 27 25 25 26 28 31 34 37 41 44 47 49
63 62 59 58 62 64 64 65 67 70 72 73 74 72 72 71 71 72 73 71 70 69 63 57 51 44 39 37 33 27 23 23 28 33 42 62 62 53 48 41 34 30 27 28 30 31 33 36 39 42 45 49 51 53
61 59 60 61 64 65 65 64 64 66 69 72 75 72 71 70 69 70 70 69 68 66 65 60 55 51 45 38 34 29 28 29 32 40 63 65 55 49 43 36 32 32 32 33 33 34 37 40 43 46 49 52 54 55

GFSWCAN_prec_cthk_108.txt.gz
RH
98 93 82 78 75 79 82 75 65 59 53 46 30 33 35 33 36 43 50 51 56 58 57 50 50 48 48 49 50 52 55 53 49 55 52 52 61 57 91 69 67 64 94 71 73 81 88 74 62 68 80 81 77 72
99 97 89 79 70 67 65 66 59 53 49 40 37 32 32 35 38 44 58 57 59 58 57 52 49 48 48 48 47 45 58 62 59 60 58 56 68 63 63 98 67 73 68 72 66 77 81 82 84 84 81 81 80 77
98 98 93 80 73 68 63 58 48 46 48 43 37 28 30 34 38 45 54 61 61 61 57 58 74 64 58 58 48 47 60 62 70 63 64 65 70 66 64 79 73 67 63 68 70 76 78 79 82 87 88 87 82 81
91 88 87 77 74 66 58 51 42 42 46 38 33 34 28 33 39 46 57 68 70 70 70 78 65 61 60 60 56 47 47 52 59 63 69 68 69 68 64 67 73 64 62 69 69 72 76 78 79 81 85 87 85 83
84 80 75 73 69 67 59 48 37 38 40 40 37 35 30 30 40 50 64 70 71 75 83 83 81 68 64 65 65 61 54 43 43 53 68 74 83 72 65 72 69 65 66 70 73 74 73 76 79 84 83 84 88 87
80 83 81 73 66 64 60 52 47 45 46 42 40 38 32 37 45 59 69 71 76 76 83 80 92 88 70 70 69 71 67 58 51 46 55 66 77 75 72 87 88 81 73 77 78 77 76 78 78 80 83 85 85 84
94 94 92 87 79 72 66 57 53 50 49 48 43 39 34 42 51 63 75 84 80 81 85 82 82 82 67 68 71 71 68 66 62 52 50 65 79 75 73 83 86 77 76 80 79 81 80 83 80 80 84 87 86 86
91 92 93 88 84 79 77 72 63 60 59 56 46 41 44 52 60 66 78 86 87 86 89 87 82 83 68 67 64 66 65 64 64 72 70 62 63 69 68 73 74 76 82 82 83 82 88 87 87 87 85 83 83 84
74 76 74 73 71 65 58 57 59 59 60 55 47 50 62 67 71 77 79 87 90 91 88 83 80 85 74 78 73 69 69 68 64 68 67 64 70 66 70 70 72 73 73 72 67 68 74 77 82 84 84 84 84 82
68 65 63 66 66 63 58 51 52 51 53 47 53 63 67 70 77 86 89 88 92 91 85 80 77 89 84 78 71 72 73 72 80 78 70 67 60 70 72 70 71 72 69 67 66 66 72 77 79 78 76 76 76 75
60 60 61 62 64 65 64 53 53 53 52 52 59 65 71 75 85 91 92 91 87 82 76 75 74 85 77 77 81 81 81 74 68 71 75 72 69 74 71 69 66 69 64 62 63 67 78 80 79 76 72 68 64 58
51 52 58 58 62 64 63 55 53 55 55 54 61 73 81 86 93 94 91 89 78 70 72 69 71 74 83 82 82 84 83 78 69 80 81 75 77 72 67 64 64 65 64 65 68 72 76 77 76 72 64 54 46 39
48 41 50 55 59 63 64 57 49 58 56 60 76 87 88 90 93 82 78 77 69 67 73 72 79 79 76 76 78 80 77 75 75 83 77 87 76 73 71 70 67 70 72 71 75 78 77 73 61 49 41 37 34 35
50 41 45 57 63 65 61 55 51 66 64 76 92 93 85 83 73 66 61 58 63 69 71 74 76 72 73 74 74 75 75 82 85 81 82 81 72 70 72 73 75 77 79 76 71 56 38 34 34 35 36 37 37 37
48 44 49 58 67 67 62 60 64 70 79 83 87 97 79 75 74 71 69 71 73 73 72 75 74 71 74 73 72 73 82 81 82 86 89 82 76 73 76 78 76 70 54 41 37 37 37 37 37 38 38 38 37 36
46 51 57 64 70 70 64 67 68 77 78 84 83 93 88 79 78 73 73 75 76 79 73 71 75 76 72 73 77 71 73 79 93 89 84 83 80 74 61 52 47 42 41 39 37 36 37 38 38 38 38 36 35 34
52 62 61 68 73 71 68 66 72 78 83 78 78 87 96 83 80 82 77 76 77 74 74 73 76 72 72 73 71 67 75 82 86 87 81 68 52 49 48 44 40 39 38 36 37 37 37 39 40 39 37 36 34 31
67 68 64 69 71 72 70 74 75 73 72 69 73 84 92 88 79 76 76 76 75 76 75 75 78 79 73 70 71 78 76 81 83 84 82 50 46 45 40 36 35 37 37 38 38 38 38 40 41 46 42 39 36 39
72 67 66 69 69 72 77 81 79 82 76 77 86 91 95 90 86 82 79 81 81 77 77 74 80 72 71 73 83 88 87 84 82 82 67 46 44 37 35 35 36 37 38 37 38 39 41 43 43 43 43 43 41 41
70 71 75 75 78 84 84 86 82 87 88 89 87 87 88 84 78 82 81 82 77 74 76 71 69 71 75 77 78 85 83 81 78 70 57 43 38 36 36 36 37 37 37 38 39 40 44 48 50 47 43 38 33 36
86 82 81 80 83 88 95 93 89 86 86 93 94 90 85 85 84 84 78 75 73 71 71 66 68 68 77 83 83 80 80 79 70 57 42 36 37 40 40 40 38 37 38 39 45 48 48 50 53 47 40 35 33 31
68 76 82 88 97 97 97 96 94 93 91 90 93 90 84 79 78 78 77 75 70 65 65 70 70 72 80 80 81 80 78 73 60 42 36 36 39 41 41 38 39 38 39 41 45 52 57 55 48 42 37 36 33 32
95 98 98 97 97 95 98 96 96 95 90 85 87 85 83 82 78 74 73 68 65 68 69 69 72 76 82 80 78 77 60 52 41 37 36 38 40 41 41 41 42 39 41 43 42 46 52 51 46 38 38 35 36 40
97 98 98 98 97 96 93 96 92 91 93 96 93 88 87 81 76 72 71 63 64 63 66 69 74 78 78 78 78 73 44 39 37 36 38 39 40 42 44 43 41 39 41 43 42 46 53 53 48 43 41 39 37 40
99 96 96 92 89 90 88 87 84 82 82 83 85 88 87 82 79 75 71 66 67 67 67 70 71 71 73 73 73 67 53 38 36 37 38 39 39 39 40 39 38 37 34 38 43 49 55 55 50 45 43 42 43 40
97 93 88 84 86 83 79 79 78 79 80 84 88 89 85 80 77 73 67 68 68 71 71 71 73 75 73 74 74 69 60 52 41 35 36 37 37 38 38 36 35 34 33 40 49 54 58 59 52 47 45 43 41 40
96 96 93 92 92 88 86 85 83 83 84 84 85 85 85 82 75 72 71 72 71 71 73 75 74 73 73 76 74 68 60 48 37 33 33 33 34 35 35 34 36 38 39 44 48 50 55 56 51 48 47 45 44 43
96 97 96 95 93 91 90 87 86 85 84 83 83 83 81 79 77 76 72 71 74 75 76 75 72 67 64 65 58 47 39 35 32 30 27 26 24 23 23 26 28 32 40 49 50 52 52 48 46 47 48 47 45 42
94 95 92 92 91 90 87 84 79 77 75 75 77 76 75 75 72 67 68 74 74 71 70 69 70 71 70 64 53 41 36 34 29 26 24 21 20 21 23 25 29 35 47 52 50 55 51 47 44 44 44 42 41 41
86 89 85 83 83 81 81 79 78 77 77 76 73 69 64 64 57 54 58 59 62 68 69 70 70 69 65 61 55 49 42 35 29 27 29 29 30 27 28 30 32 44 50 50 56 54 50 49 49 49 50 47 49 48
82 82 81 80 79 78 77 75 74 73 72 72 73 71 61 52 52 54 57 60 67 66 72 74 73 71 66 61 54 43 37 33 32 32 31 32 31 30 30 33 43 47 50 56 57 52 51 50 52 53 52 51 49 50
76 76 75 74 74 76 75 74 73 71 69 68 69 70 72 68 61 60 60 60 57 57 58 60 62 65 65 63 60 56 52 48 46 45 43 38 31 32 37 44 48 52 58 57 53 51 50 50 48 48 48 48 48 48
70 71 70 69 69 69 69 68 66 67 68 69 69 70 72 74 72 70 66 65 66 68 73 79 83 83 81 78 76 73 67 57 50 44 39 37 36 40 46 51 57 60 56 52 50 50 50 48 48 47 46 45 47 49

GFSWCAN_prec_cthk_111.txt.gz
RH
97 98 96 96 96 89 83 77 74 62 57 50 38 37 39 37 39 38 42 40 45 46 49 44 40 41 41 43 45 37 40 49 50 57 56 65 73 81 93 81 78 79 89 79 79 86 85 79 65 70 81 82 83 80
98 97 94 90 91 89 91 74 71 66 51 51 45 35 37 38 39 41 46 45 49 46 45 44 40 41 44 45 43 41 48 57 56 56 60 57 73 73 74 93 73 74 71 78 68 79 81 80 82 84 83 83 82 81
98 98 96 94 88 79 87 89 74 64 54 51 53 41 34 39 40 42 48 50 49 47 48 51 61 54 49 52 50 50 53 52 57 61 63 64 74 73 76 78 78 71 61 66 69 73 76 76 78 82 84 85 84 81
97 98 98 98 94 84 76 79 84 81 75 69 54 39 34 38 39 41 45 51 53 55 59 66 63 59 55 54 53 48 44 40 44 52 62 65 68 73 74 74 69 71 63 62 68 70 70 74 77 80 79 80 81 81
98 98 99 98 97 86 72 68 65 63 65 56 43 41 37 29 35 41 47 54 58 62 65 67 71 67 59 56 56 58 55 46 37 42 56 65 69 76 72 80 76 68 68 69 70 71 70 72 74 76 79 81 81 80
98 98 98 98 97 87 81 67 60 56 54 51 46 39 32 27 34 42 49 55 61 62 69 69 72 80 73 62 58 62 60 57 51 46 43 55 69 77 78 82 85 82 70 69 71 73 75 76 77 78 76 76 80 79
98 98 98 97 90 81 77 70 58 52 52 50 43 37 34 33 36 48 56 69 65 68 71 69 72 80 74 64 59 61 59 56 57 55 43 47 63 78 79 80 82 81 81 83 78 76 78 80 80 80 79 76 80 82
95 96 96 90 81 78 75 69 58 53 51 47 43 38 36 39 44 54 69 72 74 75 74 75 74 77 74 61 58 54 55 55 54 59 65 57 58 66 74 76 74 76 79 77 73 70 74 78 79 79 81 84 83 82
88 85 91 92 88 81 75 68 59 54 54 53 47 43 41 43 48 58 73 78 79 80 76 73 74 85 77 71 68 63 60 61 57 64 62 61 66 71 64 70 72 69 71 71 67 61 60 65 71 77 80 81 77 78
92 93 94 94 93 87 81 75 67 61 58 55 50 55 55 51 66 73 79 81 82 81 76 75 74 81 79 78 70 65 64 69 75 74 68 71 77 73 75 68 69 69 70 67 64 59 64 72 77 78 76 73 70 65
96 95 95 94 86 79 72 69 73 75 71 64 63 67 69 71 77 82 84 83 83 75 70 68 69 80 84 79 73 72 79 75 74 70 77 78 78 76 73 70 68 66 65 68 65 61 67 74 76 74 72 66 57 49
92 94 95 91 85 77 71 65 65 65 63 62 65 73 76 77 81 85 83 84 74 68 64 65 68 73 82 81 84 82 80 78 75 71 83 79 83 76 73 72 67 65 64 63 63 69 71 71 74 68 56 46 39 34
82 80 79 78 75 70 64 57 58 59 59 60 68 74 77 75 87 79 79 74 68 63 69 71 78 80 87 85 79 76 73 72 67 79 78 82 80 72 72 72 68 66 68 71 73 73 73 56 38 33 32 33 33 33
59 62 67 71 70 68 63 59 59 63 64 60 70 80 79 74 70 69 64 61 61 68 70 74 75 76 77 76 73 67 63 69 76 79 84 89 76 71 71 74 74 76 77 73 65 43 34 35 34 34 34 34 33 32
51 47 59 68 72 68 65 62 55 63 61 73 81 80 72 72 65 69 65 62 65 70 72 75 72 67 71 68 66 63 70 74 80 89 92 82 77 73 72 77 77 69 54 40 37 35 34 34 34 34 34 33 32 31
48 43 56 61 72 71 65 64 59 67 67 78 78 83 70 64 71 67 69 79 79 78 76 71 72 71 67 65 65 62 68 67 79 87 86 82 79 78 69 60 51 44 38 35 33 32 32 33 34 35 35 34 32 30
45 44 55 69 76 71 66 65 67 67 71 72 77 80 86 79 73 70 77 84 85 82 79 75 71 68 72 72 66 63 62 68 77 83 86 81 62 52 50 45 39 34 31 30 31 32 33 33 35 36 35 33 31 33
48 52 60 76 77 73 69 67 67 69 66 65 70 73 84 83 86 84 83 92 97 88 79 73 77 77 73 69 67 67 72 73 79 81 82 76 48 45 42 35 32 30 30 31 32 33 33 33 36 39 40 40 38 37
62 63 70 76 74 69 67 67 70 72 65 64 64 64 81 89 89 91 88 86 87 86 81 76 76 80 78 70 70 73 83 83 79 80 79 74 49 40 35 33 31 31 31 31 31 31 31 32 37 41 44 42 44 45
81 72 69 73 72 69 69 68 61 70 66 62 60 64 75 92 86 84 83 83 82 83 82 74 67 70 75 72 71 75 77 81 79 79 78 66 47 36 33 32 34 35 34 34 35 34 34 36 40 43 43 46 42 38
80 73 75 76 76 78 70 79 66 71 79 72 65 67 81 88 86 85 84 83 85 83 76 63 63 69 68 68 75 77 79 78 76 76 70 62 41 34 34 36 38 37 36 37 37 38 40 43 43 44 45 45 44 43
71 71 76 81 93 93 92 89 83 83 84 86 89 88 89 89 88 83 84 83 78 73 64 64 66 62 67 71 77 78 77 76 76 72 62 46 35 34 36 38 38 40 41 43 44 43 42 42 42 44 45 45 46 46
88 89 83 84 92 86 89 93 93 92 92 92 92 92 93 89 85 86 85 78 69 63 59 63 62 66 71 72 75 77 75 74 70 65 46 35 35 36 37 37 40 42 48 50 47 43 41 42 43 46 48 48 50 51
85 88 81 80 91 94 90 95 94 95 96 95 91 88 87 82 80 79 73 67 63 61 60 61 64 68 71 71 74 77 76 75 55 41 36 38 38 38 39 40 44 47 48 49 44 39 39 41 43 49 53 54 54 53
94 96 97 93 89 87 88 96 98 96 96 96 90 85 85 83 83 79 73 67 64 61 63 63 65 66 67 71 73 74 75 72 64 41 38 38 39 39 40 40 42 45 44 42 39 36 39 45 51 58 60 57 56 56
90 96 96 96 96 94 94 97 94 92 91 93 92 90 90 92 88 78 69 67 69 66 64 66 68 68 68 68 70 71 71 71 70 60 53 50 44 38 35 36 36 35 32 30 34 39 45 51 57 62 63 59 56 57
98 98 97 95 97 94 93 92 88 87 86 85 86 90 93 89 81 74 71 69 68 67 65 66 69 68 68 70 74 75 76 78 77 69 59 50 42 34 32 32 32 31 31 31 32 37 43 49 58 62 62 59 58 58
97 96 97 98 97 95 95 94 91 87 86 86 88 88 85 83 81 79 74 71 70 69 69 69 71 71 75 79 79 80 79 74 64 55 46 37 32 32 32 31 29 29 30 30 32 37 40 48 53 55 55 54 56 56
97 97 97 97 97 97 97 96 93 90 89 90 90 89 88 85 87 83 79 78 76 74 74 75 78 79 80 79 76 73 69 63 53 43 34 28 26 24 23 23 26 29 31 35 37 40 48 53 55 57 54 54 53 51
97 97 96 95 97 96 94 92 90 87 87 85 83 84 83 81 78 74 67 62 64 67 75 76 75 75 75 75 74 72 67 59 48 41 33 27 25 28 30 31 33 39 39 38 45 50 55 59 59 55 55 52 50 50
91 93 90 90 90 88 85 84 83 82 81 83 80 76 72 67 64 62 56 58 63 67 68 69 73 76 79 79 74 69 65 57 48 46 47 44 40 39 44 48 45 40 44 49 52 58 62 57 53 51 51 49 48 45
85 86 84 84 85 85 84 82 81 77 75 72 71 71 74 72 69 64 63 64 65 66 66 67 71 72 71 70 67 65 68 68 65 60 56 55 56 54 48 43 42 47 51 58 63 60 54 50 50 47 46 43 40 41
78 79 78 79 79 79 78 79 77 77 74 73 72 73 73 73 74 76 75 72 68 66 66 67 71 74 78 80 83 82 76 69 65 63 58 53 50 47 43 44 50 59 64 62 55 49 48 46 44 42 38 38 39 40

GFSWCAN_prec_cthk_114.txt.gz
RH
98 99 99 97 98 97 95 95 91 79 70 65 56 41 47 44 42 43 37 36 37 40 47 44 34 34 36 35 38 32 36 42 41 53 62 73 85 87 95 85 79 87 86 86 87 86 87 82 71 74 79 79 79 80
98 97 98 98 98 97 90 83 85 77 59 51 46 44 44 44 43 37 36 38 38 40 40 38 34 35 37 38 38 42 47 49 51 52 57 61 79 86 84 96 78 79 77 80 77 80 81 81 79 79 81 82 79 77
98 96 97 98 98 97 97 95 92 80 70 63 49 43 45 44 40 33 39 42 43 41 41 49 52 43 41 43 42 47 48 48 48 50 54 65 70 76 85 83 77 74 67 68 70 73 72 72 73 74 76 75 75 77
98 97 95 94 95 96 97 95 85 78 61 56 56 39 42 43 37 36 45 46 45 44 54 54 51 49 49 44 45 46 41 40 35 43 52 56 66 66 76 79 75 72 68 66 70 70 70 70 70 68 68 69 69 72
99 97 97 97 96 89 90 94 76 74 74 59 52 46 41 40 36 40 43 48 50 49 58 59 56 55 53 46 49 51 50 47 39 39 45 53 62 69 70 78 79 71 70 71 71 68 67 68 68 65 64 64 68 71
94 98 98 98 98 95 85 87 89 85 78 68 56 57 44 34 37 41 45 49 51 54 58 57 61 64 60 58 56 55 55 52 48 43 39 45 58 65 72 79 80 77 71 70 69 70 68 69 69 66 66 68 69 69
93 98 98 98 98 96 88 78 78 84 87 81 70 58 37 32 38 40 45 54 53 58 61 61 67 72 68 61 58 55 57 54 52 54 41 41 52 64 75 79 77 74 78 80 77 73 73 72 71 72 74 77 76 73
98 99 98 98 98 97 90 78 66 74 73 68 59 44 40 35 36 49 57 58 58 63 63 62 64 67 66 59 56 54 51 54 51 52 58 55 49 55 67 77 73 72 77 80 76 67 60 61 62 63 68 70 70 68
98 99 98 98 97 96 89 81 75 68 64 63 55 44 38 35 41 59 61 65 65 69 63 62 63 70 68 69 66 61 58 57 55 60 61 61 64 67 63 64 72 71 74 78 68 64 61 62 64 68 70 69 68 68
97 97 97 97 97 92 85 80 71 66 63 55 47 37 36 36 52 63 68 69 68 70 68 65 60 67 68 72 69 64 64 68 72 70 65 67 72 69 69 70 66 69 71 70 68 64 57 64 70 72 71 69 65 58
98 98 97 94 93 90 85 77 71 74 66 52 46 52 49 52 60 70 76 74 70 67 60 61 61 68 74 78 75 68 75 75 73 67 70 74 72 68 72 69 69 66 66 71 71 66 64 72 71 66 64 54 43 36
98 97 94 91 90 89 86 82 79 68 60 55 61 62 67 73 73 76 77 76 67 59 58 60 60 65 75 78 74 77 78 75 73 67 72 73 74 74 73 76 75 72 70 69 70 71 74 72 63 44 34 31 32 32
98 99 96 93 89 85 82 80 85 83 69 74 74 73 75 76 79 75 76 69 63 55 61 59 66 69 75 80 81 78 71 72 66 69 71 67 76 71 74 76 75 72 69 66 70 74 70 49 35 33 33 32 32 31
98 98 98 95 91 86 79 79 82 81 81 86 87 83 77 70 68 65 59 55 50 57 61 66 71 72 75 82 79 70 64 64 67 74 73 79 73 71 73 77 77 76 79 79 72 48 35 34 32 32 33 33 32 30
98 98 98 97 94 84 80 81 79 74 71 82 79 77 72 69 62 62 64 61 62 64 69 73 72 69 75 72 69 62 67 66 71 77 82 78 71 70 71 75 80 77 67 43 36 33 32 30 31 32 33 33 33 32
90 96 94 92 91 80 71 71 74 70 66 69 62 71 67 69 65 64 66 67 67 71 73 74 74 69 66 64 65 58 57 59 61 77 81 78 73 73 77 72 62 49 40 35 31 30 30 30 30 29 30 31 31 31
66 73 82 87 87 78 72 65 62 67 67 64 66 71 64 67 70 66 65 82 87 84 80 79 75 67 65 68 63 54 55 57 62 68 77 79 76 60 53 51 44 38 33 30 29 29 29 29 28 29 29 30 31 34
45 54 71 81 81 76 70 66 63 65 66 66 76 81 80 69 67 69 71 78 89 92 87 84 73 70 68 67 63 59 57 62 70 76 80 79 72 46 45 43 36 32 29 29 29 29 29 30 30 32 33 34 35 37
42 58 76 77 75 72 67 66 64 65 60 66 80 83 81 78 78 74 75 87 94 96 89 83 77 70 69 68 67 67 64 72 77 76 76 76 75 51 42 37 33 31 30 30 31 31 33 33 36 38 36 36 37 37
53 69 79 79 76 69 66 65 58 63 61 55 66 76 75 74 80 81 76 85 92 95 92 82 68 65 68 71 70 67 66 68 75 78 77 76 75 60 38 33 31 31 32 34 34 36 38 38 40 40 37 37 39 41
70 78 81 79 73 71 68 62 51 51 60 56 53 59 70 75 75 85 79 81 84 78 75 66 63 64 65 71 68 67 73 75 75 75 74 76 74 62 38 34 33 32 33 34 36 38 41 44 45 44 41 42 43 42
74 79 78 76 74 70 70 69 58 55 57 67 66 59 59 66 72 78 75 78 76 68 65 66 66 60 62 64 67 68 74 76 74 73 75 74 69 56 38 33 33 33 33 34 37 42 44 46 46 45 44 44 45 45
69 71 75 78 77 80 84 83 80 69 67 76 81 79 81 85 85 86 83 75 68 65 67 69 63 60 61 63 65 70 75 75 73 70 66 70 62 41 34 34 35 34 35 38 41 45 48 49 48 46 45 47 49 50
75 85 89 89 88 94 92 93 92 90 89 90 89 87 85 84 85 83 76 67 64 69 67 63 60 58 60 62 65 68 70 73 73 72 62 50 40 34 35 38 37 38 39 39 42 45 47 48 44 42 42 48 53 55
92 87 89 87 91 97 97 97 98 97 96 95 94 91 91 90 86 81 70 71 68 66 63 60 57 57 59 62 64 65 68 71 72 72 65 57 40 36 38 38 39 38 40 40 41 43 42 39 36 40 48 54 55 57
91 89 85 88 85 83 83 86 88 92 96 97 95 92 89 89 88 78 72 72 69 66 62 60 60 62 63 63 65 68 71 73 74 71 71 69 62 56 48 47 51 51 42 37 37 35 33 33 38 48 56 57 59 65
88 91 90 92 94 92 91 90 88 91 91 90 93 94 92 88 79 74 72 70 68 65 63 62 61 62 65 68 71 72 72 74 74 74 74 73 70 69 64 54 48 38 30 28 28 28 31 38 49 55 56 60 67 69
91 93 95 97 98 97 95 94 92 91 90 88 87 86 86 85 85 84 78 72 69 67 65 65 65 65 69 73 74 75 76 78 80 81 79 73 64 56 49 38 32 30 31 31 32 32 38 49 50 49 57 64 68 63
96 97 97 97 98 98 97 97 97 94 94 94 93 93 92 91 91 85 84 81 77 73 70 71 72 73 75 78 79 81 84 83 80 78 73 65 53 44 37 35 35 38 38 36 41 49 50 47 50 59 65 65 58 53
98 98 97 97 97 97 97 97 97 97 96 97 97 96 95 93 91 89 87 83 78 72 69 73 77 79 82 83 83 81 80 80 79 76 67 57 52 47 47 45 43 45 50 57 52 50 50 54 65 67 60 53 49 48
98 97 97 97 97 97 97 97 97 96 95 94 94 91 91 90 88 84 80 74 63 63 69 72 71 74 78 80 79 81 83 81 76 68 62 63 62 61 56 55 58 58 53 49 50 53 61 66 61 52 47 46 43 38
96 97 95 94 94 93 91 91 90 87 87 84 83 82 82 80 77 72 68 64 64 66 68 70 74 79 81 83 82 77 74 72 72 75 73 67 62 60 59 54 52 51 47 53 61 66 60 49 45 43 41 37 36 35
89 89 88 88 87 86 86 86 85 84 81 79 77 76 75 74 76 79 79 79 77 73 71 72 73 75 75 74 76 78 80 80 76 71 66 62 58 56 55 50 43 53 64 65 54 47 44 42 39 36 34 32 35 43